| time (UTC) | temp F | wind direction | speed MPH | gust MPH | rain 1hr in | rain 24hr in | rain mn in | humidity % | barometer mb |
| 20260507044526 | 55 | 319 | 0.0 | 0.0 | 0.00 | 0.21 | 0.00 | 84 | 1011.1 |
| 20260507043526 | 55 | 329 | 1.0 | 2.0 | 0.00 | 0.21 | 0.00 | 84 | 1011.0 |
| 20260507042526 | 55 | 329 | 0.0 | 1.0 | 0.00 | 0.22 | 0.00 | 84 | 1011.0 |
| 20260507041526 | 55 | 13 | 1.0 | 2.0 | 0.00 | 0.23 | 0.00 | 84 | 1010.8 |
| 20260507040526 | 55 | 355 | 1.0 | 2.0 | 0.00 | 0.28 | 0.00 | 84 | 1010.7 |
| 20260507035526 | 55 | 333 | 1.0 | 3.0 | 0.00 | 0.33 | 0.00 | 84 | 1010.6 |
| 20260507034526 | 55 | 329 | 1.0 | 2.0 | 0.00 | 0.36 | 0.00 | 84 | 1010.6 |
| 20260507033526 | 55 | 330 | 1.0 | 3.0 | 0.00 | 0.38 | 0.00 | 84 | 1010.6 |
| 20260507032526 | 55 | 5 | 1.0 | 2.0 | 0.00 | 0.40 | 0.00 | 84 | 1010.5 |
| 20260507031526 | 55 | 350 | 1.0 | 3.0 | 0.00 | 0.41 | 0.00 | 83 | 1010.6 |
| 20260507030526 | 55 | 14 | 1.0 | 3.0 | 0.00 | 0.42 | 0.00 | 84 | 1010.5 |
| 20260507025526 | 55 | 319 | 3.0 | 5.0 | 0.00 | 0.43 | 0.00 | 83 | 1010.6 |
| 20260507024526 | 55 | 324 | 2.0 | 3.0 | 0.00 | 0.43 | 0.00 | 83 | 1010.5 |
| 20260507023526 | 55 | 336 | 1.0 | 2.0 | 0.00 | 0.44 | 0.00 | 83 | 1010.4 |
| 20260507022526 | 55 | 323 | 1.0 | 2.0 | 0.00 | 0.45 | 0.00 | 83 | 1010.5 |
| 20260507021526 | 56 | 346 | 1.0 | 2.0 | 0.00 | 0.46 | 0.00 | 83 | 1010.4 |
| 20260507020526 | 56 | 337 | 2.0 | 2.0 | 0.00 | 0.47 | 0.00 | 82 | 1010.4 |
| 20260507015526 | 56 | 351 | 1.0 | 3.0 | 0.00 | 0.48 | 0.00 | 82 | 1010.3 |
| 20260507014526 | 56 | 307 | 2.0 | 2.0 | 0.00 | 0.48 | 0.00 | 82 | 1010.3 |
| 20260507013525 | 56 | 304 | 2.0 | 3.0 | 0.00 | 0.48 | 0.00 | 81 | 1010.2 |
| 20260507012525 | 56 | 317 | 2.0 | 3.0 | 0.00 | 0.48 | 0.00 | 81 | 1010.3 |
| 20260507011525 | 57 | 320 | 3.0 | 3.0 | 0.00 | 0.48 | 0.00 | 80 | 1010.1 |
| 20260507010525 | 57 | 331 | 5.0 | 7.0 | 0.00 | 0.48 | 0.00 | 80 | 1010.2 |
| 20260507005525 | 57 | 319 | 7.0 | 10.0 | 0.00 | 0.48 | 0.00 | 79 | 1010.2 |
| 20260507004525 | 57 | 330 | 3.0 | 5.0 | 0.00 | 0.48 | 0.00 | 78 | 1010.1 |
| 20260507003525 | 57 | 327 | 3.0 | 5.0 | 0.00 | 0.48 | 0.00 | 78 | 1010.1 |
| 20260507002525 | 57 | 338 | 3.0 | 5.0 | 0.00 | 0.48 | 0.00 | 79 | 1010.2 |
| 20260507001525 | 57 | 326 | 2.0 | 5.0 | 0.00 | 0.48 | 0.00 | 79 | 1010.2 |
| 20260507000525 | 57 | 331 | 2.0 | 3.0 | 0.00 | 0.48 | 0.00 | 80 | 1010.3 |
| 20260506235525 | 56 | 335 | 3.0 | 3.0 | 0.00 | 0.48 | 0.00 | 80 | 1010.3 |
| 20260506234525 | 56 | 324 | 1.0 | 3.0 | 0.00 | 0.48 | 0.00 | 80 | 1010.2 |
| 20260506233525 | 56 | 326 | 3.0 | 3.0 | 0.00 | 0.48 | 0.00 | 81 | 1010.1 |
| 20260506232525 | 56 | 324 | 1.0 | 3.0 | 0.00 | 0.48 | 0.00 | 81 | 1010.0 |
| 20260506231525 | 56 | 338 | 1.0 | 3.0 | 0.00 | 0.48 | 0.00 | 82 | 1010.0 |
| 20260506230525 | 56 | 328 | 1.0 | 3.0 | 0.00 | 0.48 | 0.00 | 82 | 1009.8 |
| 20260506225525 | 56 | 304 | 1.0 | 1.0 | 0.00 | 0.48 | 0.00 | 82 | 1009.7 |
| 20260506224525 | 56 | 265 | 0.0 | 1.0 | 0.00 | 0.48 | 0.00 | 82 | 1009.7 |
| 20260506223525 | 56 | 265 | 1.0 | 1.0 | 0.00 | 0.48 | 0.00 | 81 | 1009.7 |
| 20260506222525 | 56 | 265 | 0.0 | 0.0 | 0.00 | 0.48 | 0.00 | 81 | 1009.8 |
| 20260506221525 | 56 | 265 | 1.0 | 1.0 | 0.00 | 0.48 | 0.00 | 80 | 1009.9 |
| 20260506220525 | 56 | 321 | 0.0 | 1.0 | 0.00 | 0.48 | 0.00 | 80 | 1009.9 |
| 20260506215525 | 57 | 323 | 1.0 | 2.0 | 0.00 | 0.48 | 0.48 | 80 | 1009.8 |
| 20260506214525 | 57 | 321 | 0.0 | 1.0 | 0.00 | 0.48 | 0.48 | 80 | 1009.8 |
| 20260506213525 | 57 | 327 | 1.0 | 1.0 | 0.00 | 0.48 | 0.48 | 80 | 1009.5 |
| 20260506212525 | 57 | 16 | 1.0 | 1.0 | 0.00 | 0.48 | 0.48 | 79 | 1009.7 |
| 20260506211525 | 57 | 351 | 1.0 | 2.0 | 0.00 | 0.48 | 0.48 | 79 | 1009.5 |
| 20260506210525 | 57 | 12 | 1.0 | 2.0 | 0.00 | 0.48 | 0.48 | 79 | 1009.5 |
| 20260506205525 | 57 | 0 | 0.0 | 3.0 | 0.00 | 0.48 | 0.48 | 79 | 1009.5 |
| 20260506204525 | 57 | 0 | 0.0 | 3.0 | 0.00 | 0.48 | 0.48 | 79 | 1009.4 |
| 20260506203525 | 57 | 354 | 1.0 | 3.0 | 0.00 | 0.48 | 0.48 | 79 | 1009.3 |
| 20260506202525 | 57 | 5 | 2.0 | 3.0 | 0.00 | 0.48 | 0.48 | 79 | 1009.3 |
| 20260506201525 | 57 | 1 | 2.0 | 3.0 | 0.00 | 0.48 | 0.48 | 79 | 1009.1 |
| 20260506200525 | 57 | 14 | 2.0 | 3.0 | 0.00 | 0.48 | 0.48 | 79 | 1009.0 |
| 20260506195525 | 57 | 352 | 2.0 | 3.0 | 0.00 | 0.48 | 0.48 | 79 | 1009.0 |
| 20260506194525 | 57 | 352 | 3.0 | 6.0 | 0.00 | 0.49 | 0.48 | 79 | 1009.0 |
| 20260506193525 | 58 | 352 | 3.0 | 5.0 | 0.00 | 0.49 | 0.48 | 79 | 1009.0 |
| 20260506192525 | 58 | 333 | 2.0 | 3.0 | 0.00 | 0.50 | 0.48 | 79 | 1008.5 |
| 20260506191526 | 58 | 351 | 3.0 | 5.0 | 0.00 | 0.50 | 0.48 | 78 | 1008.6 |
| 20260506190525 | 58 | 343 | 2.0 | 5.0 | 0.00 | 0.50 | 0.48 | 78 | 1008.6 |
| 20260506185525 | 59 | 356 | 2.0 | 3.0 | 0.00 | 0.50 | 0.48 | 77 | 1008.4 |
| 20260506184525 | 59 | 319 | 2.0 | 6.0 | 0.00 | 0.50 | 0.48 | 76 | 1008.3 |
| 20260506183525 | 60 | 344 | 3.0 | 3.0 | 0.00 | 0.50 | 0.48 | 76 | 1008.0 |
| 20260506182525 | 60 | 19 | 5.0 | 5.0 | 0.00 | 0.50 | 0.48 | 75 | 1007.7 |
| 20260506181525 | 60 | 23 | 5.0 | 7.0 | 0.00 | 0.50 | 0.48 | 75 | 1007.6 |
| 20260506180525 | 61 | 334 | 3.0 | 3.0 | 0.00 | 0.50 | 0.48 | 74 | 1007.4 |
| 20260506175525 | 61 | 24 | 5.0 | 7.0 | 0.00 | 0.50 | 0.48 | 73 | 1007.1 |
| 20260506174525 | 61 | 22 | 3.0 | 6.0 | 0.00 | 0.50 | 0.48 | 73 | 1007.0 |
| 20260506173525 | 62 | 7 | 3.0 | 5.0 | 0.00 | 0.50 | 0.48 | 73 | 1006.9 |
| 20260506172525 | 62 | 0 | 0.0 | 7.0 | 0.00 | 0.50 | 0.48 | 72 | 1006.7 |
| 20260506171525 | 63 | 14 | 5.0 | 9.0 | 0.00 | 0.50 | 0.48 | 71 | 1006.6 |
| 20260506170525 | 63 | 327 | 6.0 | 10.0 | 0.00 | 0.50 | 0.48 | 70 | 1006.5 |
| 20260506165525 | 64 | 359 | 7.0 | 13.0 | 0.00 | 0.50 | 0.48 | 68 | 1006.2 |
| 20260506164525 | 65 | 2 | 8.0 | 15.0 | 0.00 | 0.50 | 0.48 | 65 | 1005.8 |
| 20260506163525 | 70 | 338 | 10.0 | 16.0 | 0.00 | 0.50 | 0.48 | 56 | 1005.4 |
| 20260506162525 | 74 | 276 | 3.0 | 6.0 | 0.00 | 0.50 | 0.48 | 46 | 1005.1 |
| 20260506161525 | 74 | 255 | 6.0 | 8.0 | 0.00 | 0.50 | 0.48 | 46 | 1004.8 |
| 20260506160525 | 74 | 243 | 5.0 | 6.0 | 0.00 | 0.50 | 0.48 | 47 | 1004.8 |
| 20260506155525 | 74 | 228 | 5.0 | 6.0 | 0.00 | 0.50 | 0.48 | 47 | 1004.8 |
| 20260506154525 | 74 | 203 | 3.0 | 10.0 | 0.00 | 0.50 | 0.48 | 50 | 1004.8 |
| 20260506153525 | 72 | 149 | 3.0 | 5.0 | 0.00 | 0.50 | 0.48 | 58 | 1004.9 |
| 20260506152525 | 72 | 87 | 3.0 | 5.0 | 0.00 | 0.50 | 0.48 | 64 | 1004.9 |
| 20260506151525 | 72 | 129 | 8.0 | 10.0 | 0.00 | 0.50 | 0.48 | 66 | 1005.1 |
| 20260506150525 | 72 | 113 | 3.0 | 7.0 | 0.00 | 0.50 | 0.48 | 67 | 1005.1 |
| 20260506145525 | 71 | 100 | 8.0 | 13.0 | 0.00 | 0.50 | 0.48 | 69 | 1005.2 |
| 20260506144525 | 71 | 116 | 7.0 | 12.0 | 0.00 | 0.50 | 0.48 | 70 | 1005.4 |
| 20260506143525 | 71 | 128 | 9.0 | 13.0 | 0.00 | 0.50 | 0.48 | 69 | 1005.4 |
| 20260506142525 | 70 | 105 | 5.0 | 6.0 | 0.00 | 0.50 | 0.48 | 75 | 1005.4 |
| 20260506141525 | 69 | 124 | 6.0 | 14.0 | 0.00 | 0.50 | 0.48 | 75 | 1005.7 |
| 20260506140525 | 69 | 139 | 3.0 | 8.0 | 0.00 | 0.50 | 0.48 | 75 | 1006.0 |
| 20260506135525 | 69 | 103 | 3.0 | 5.0 | 0.00 | 0.50 | 0.48 | 74 | 1006.2 |
| 20260506134525 | 69 | 136 | 5.0 | 9.0 | 0.00 | 0.50 | 0.48 | 73 | 1006.3 |
| 20260506133525 | 69 | 126 | 5.0 | 7.0 | 0.00 | 0.50 | 0.48 | 74 | 1006.4 |
| 20260506132525 | 68 | 115 | 6.0 | 10.0 | 0.00 | 0.50 | 0.48 | 75 | 1006.4 |
| 20260506131525 | 68 | 120 | 7.0 | 14.0 | 0.00 | 0.51 | 0.48 | 75 | 1006.6 |
| 20260506130525 | 68 | 128 | 7.0 | 12.0 | 0.00 | 0.51 | 0.48 | 76 | 1006.7 |
| 20260506125525 | 68 | 128 | 6.0 | 7.0 | 0.00 | 0.51 | 0.48 | 76 | 1006.8 |
| 20260506124525 | 68 | 143 | 7.0 | 12.0 | 0.00 | 0.51 | 0.48 | 76 | 1006.9 |
| 20260506123525 | 68 | 85 | 5.0 | 9.0 | 0.00 | 0.51 | 0.48 | 77 | 1006.8 |
| 20260506122524 | 67 | 144 | 7.0 | 12.0 | 0.00 | 0.51 | 0.48 | 77 | 1006.8 |
| 20260506121524 | 66 | 148 | 5.0 | 6.0 | 0.00 | 0.51 | 0.48 | 82 | 1007.0 |
| 20260506120524 | 65 | 122 | 7.0 | 9.0 | 0.00 | 0.51 | 0.48 | 83 | 1007.2 |
| 20260506115525 | 64 | 135 | 8.0 | 13.0 | 0.00 | 0.51 | 0.48 | 86 | 1007.1 |
| 20260506114524 | 64 | 100 | 6.0 | 9.0 | 0.00 | 0.51 | 0.48 | 86 | 1007.2 |
| 20260506113524 | 64 | 85 | 5.0 | 7.0 | 0.00 | 0.51 | 0.48 | 88 | 1007.3 |
| 20260506112524 | 63 | 105 | 6.0 | 8.0 | 0.00 | 0.51 | 0.48 | 89 | 1007.4 |
| 20260506111524 | 63 | 103 | 5.0 | 8.0 | 0.00 | 0.51 | 0.48 | 89 | 1007.5 |
| 20260506110524 | 63 | 122 | 6.0 | 12.0 | 0.00 | 0.51 | 0.48 | 90 | 1007.5 |
| 20260506105524 | 63 | 90 | 7.0 | 10.0 | 0.00 | 0.51 | 0.48 | 91 | 1007.5 |
| 20260506104524 | 62 | 124 | 8.0 | 12.0 | 0.00 | 0.51 | 0.48 | 92 | 1007.6 |
| 20260506103524 | 62 | 109 | 8.0 | 17.0 | 0.00 | 0.51 | 0.48 | 93 | 1007.5 |
| 20260506102524 | 62 | 111 | 7.0 | 20.0 | 0.00 | 0.51 | 0.48 | 94 | 1007.6 |
| 20260506101524 | 61 | 100 | 7.0 | 10.0 | 0.00 | 0.51 | 0.48 | 95 | 1007.6 |
| 20260506100524 | 60 | 119 | 8.0 | 13.0 | 0.00 | 0.51 | 0.48 | 95 | 1007.7 |
| 20260506095524 | 60 | 126 | 7.0 | 12.0 | 0.00 | 0.51 | 0.48 | 95 | 1007.6 |
| 20260506094524 | 60 | 102 | 7.0 | 10.0 | 0.00 | 0.51 | 0.48 | 95 | 1007.7 |
| 20260506093524 | 59 | 106 | 5.0 | 5.0 | 0.04 | 0.51 | 0.48 | 95 | 1007.5 |
| 20260506092524 | 59 | 126 | 5.0 | 7.0 | 0.12 | 0.51 | 0.48 | 95 | 1007.6 |
| 20260506091524 | 59 | 105 | 5.0 | 8.0 | 0.14 | 0.51 | 0.48 | 95 | 1007.4 |
| 20260506090524 | 58 | 72 | 3.0 | 8.0 | 0.16 | 0.51 | 0.48 | 95 | 1007.2 |
| 20260506085524 | 58 | 94 | 8.0 | 12.0 | 0.19 | 0.51 | 0.48 | 95 | 1007.7 |
| 20260506084525 | 58 | 94 | 7.0 | 8.0 | 0.20 | 0.51 | 0.48 | 95 | 1007.7 |
| 20260506083524 | 58 | 110 | 6.0 | 8.0 | 0.16 | 0.47 | 0.44 | 95 | 1008.4 |
| 20260506082524 | 57 | 145 | 3.0 | 7.0 | 0.08 | 0.39 | 0.36 | 95 | 1008.3 |
| 20260506081524 | 57 | 105 | 3.0 | 6.0 | 0.06 | 0.37 | 0.34 | 95 | 1007.9 |
| 20260506080524 | 57 | 102 | 5.0 | 7.0 | 0.04 | 0.36 | 0.32 | 95 | 1007.6 |
| 20260506073524 | 58 | 97 | 6.0 | 10.0 | 0.00 | 0.34 | 0.28 | 95 | 1007.8 |
| 20260506072524 | 58 | 103 | 6.0 | 9.0 | 0.01 | 0.35 | 0.28 | 95 | 1007.8 |
| 20260506071524 | 58 | 79 | 7.0 | 8.0 | 0.01 | 0.39 | 0.28 | 95 | 1007.7 |
| 20260506070524 | 58 | 99 | 8.0 | 13.0 | 0.01 | 0.40 | 0.28 | 95 | 1007.7 |
| 20260506061524 | 57 | 107 | 6.0 | 16.0 | 0.00 | 0.42 | 0.27 | 95 | 1008.4 |
| 20260506060524 | 56 | 116 | 8.0 | 10.0 | 0.00 | 0.43 | 0.27 | 95 | 1008.4 |
| 20260506050524 | 56 | 97 | 6.0 | 7.0 | 0.07 | 0.47 | 0.27 | 95 | 1008.5 |